RH
3 3 2 2 2 2 2 2 2 2 2 2 2 2 2 3 3 3 3 2 2 2 2 2 2 2 3 4 4 3 3 2 2 2 3 3 4 6 8 8 7 8 13 17 34 57 64 67 69 62 59 62 61 61 63 63 60 60 62 62 61 56 47 40 44 47 43 45 41 25 23 28 23 18 8 1 10 11 7 10 8 7 10 8 9 8 7 10
3 3 3 3 3 2 2 2 2 2 2 2 2 2 2 2 2 3 3 3 2 2 2 2 2 2 3 3 4 3 3 3 2 2 2 2 3 5 7 9 9 7 11 17 32 55 65 68 68 62 60 62 60 59 62 60 57 58 59 61 59 54 44 37 41 45 45 51 46 32 27 30 29 19 9 6 6 6 6 6 7 9 9 9 11 11 11 12
3 3 3 3 3 3 3 2 2 2 2 2 2 2 2 2 2 2 2 3 3 2 2 2 2 2 2 3 4 3 4 3 3 3 2 2 2 3 5 8 10 7 10 18 31 49 59 63 63 60 58 61 59 57 61 58 54 54 54 60 59 50 40 34 39 43 44 47 48 43 35 31 30 21 13 13 7 3 8 6 6 9 8 10 11 13 13 13
2 2 2 3 3 3 3 3 3 2 2 2 2 2 2 2 2 2 2 2 3 3 2 2 2 2 2 2 3 3 4 3 3 3 2 2 2 2 3 6 10 6 9 19 31 43 51 57 59 58 58 60 59 55 59 57 53 52 55 64 60 46 38 33 37 44 46 49 51 46 41 37 30 22 15 13 10 9 11 7 8 9 6 10 11 13 15 15
2 2 2 2 2 2 3 3 3 3 3 2 2 2 2 2 2 2 2 2 2 3 3 3 2 2 2 2 2 3 4 3 3 3 3 2 1 2 2 4 9 7 7 18 31 39 45 53 56 57 58 58 59 56 58 57 53 53 57 63 57 44 41 38 34 40 46 48 50 48 50 44 25 17 11 12 19 17 14 12 14 13 6 8 10 12 16 16
2 2 2 2 2 2 2 2 2 3 3 3 3 3 2 2 2 2 2 2 2 2 2 3 3 2 2 2 2 3 3 3 3 3 3 3 2 2 2 3 6 7 7 16 29 35 40 48 52 57 61 58 58 58 56 55 52 53 57 56 51 45 43 39 28 30 40 38 36 40 45 40 27 22 11 15 26 17 14 15 13 10 6 8 9 11 15 16
3 2 2 2 2 2 2 2 2 2 2 3 3 3 3 3 2 2 2 2 2 2 2 2 3 3 2 2 2 2 3 3 2 3 3 3 3 2 2 2 4 7 7 12 24 32 37 44 49 58 63 58 57 57 55 53 49 51 57 53 47 43 37 31 20 22 37 38 29 27 32 34 35 30 13 19 24 8 10 15 10 7 7 9 9 11 14 15
3 3 3 2 2 2 2 2 2 2 2 2 3 3 3 3 3 3 2 2 2 2 2 2 2 3 3 2 2 2 2 2 2 3 3 3 3 2 2 2 3 5 6 9 17 29 35 41 49 56 61 58 56 56 53 51 49 48 51 51 47 41 35 29 19 21 35 34 24 21 25 27 27 23 18 30 25 4 6 9 7 7 6 8 8 10 13 14
4 4 3 3 3 3 2 2 2 2 2 2 2 2 2 3 3 3 3 3 2 2 2 2 2 2 3 3 2 2 2 2 2 3 3 3 3 3 2 2 2 3 5 7 12 21 29 37 47 54 60 61 55 53 52 50 50 47 46 47 46 41 38 32 23 28 36 27 17 17 20 18 15 16 20 29 19 3 5 6 4 6 6 8 8 9 11 13
5 4 4 4 3 3 3 3 3 2 2 2 2 2 2 2 2 2 3 3 3 3 2 2 2 2 2 3 3 3 2 2 2 2 3 3 3 3 3 2 2 2 3 5 9 15 23 37 46 50 57 60 54 51 51 50 49 45 43 44 44 41 37 32 28 32 34 23 17 18 19 16 12 14 17 17 10 3 5 4 4 6 6 8 7 8 9 12
5 5 5 5 4 4 4 4 3 3 3 2 2 2 2 2 2 2 2 2 2 2 3 3 2 2 2 3 3 3 2 2 2 2 2 3 3 3 3 3 2 2 2 3 7 12 23 36 39 42 50 54 53 50 50 50 49 45 41 41 40 40 35 31 30 31 29 22 18 18 17 17 15 14 14 11 7 6 6 5 5 5 5 7 7 8 8 10
5 5 5 5 5 5 4 4 4 4 4 3 3 3 2 2 2 2 2 2 2 2 3 3 2 3 2 2 2 3 3 2 2 2 2 2 3 3 4 4 2 2 2 2 5 9 19 27 30 36 40 47 52 50 49 50 50 45 40 39 37 38 35 30 29 28 27 22 15 15 17 17 19 19 16 15 10 8 10 8 6 5 5 6 6 8 8 8
5 5 5 5 5 5 5 5 5 4 4 4 4 3 3 3 2 2 2 2 2 2 2 2 2 3 2 2 2 2 3 3 3 2 2 2 2 3 3 4 3 2 2 2 3 6 13 19 25 29 33 46 52 45 45 50 51 45 41 42 37 36 36 30 27 28 28 23 14 16 22 18 15 21 22 19 17 13 13 11 8 8 6 5 6 7 8 8
5 5 5 5 5 5 5 5 5 5 5 5 4 4 4 4 3 3 3 2 2 2 2 2 2 2 2 3 2 2 2 3 3 2 2 2 2 3 3 4 4 3 2 2 2 3 8 14 16 19 29 44 43 37 44 50 53 48 44 45 38 36 39 32 25 27 30 26 17 17 32 31 13 17 26 24 22 20 15 12 11 11 8 6 5 5 7 8
6 5 5 5 5 5 5 5 6 5 5 5 5 5 5 4 4 4 3 3 3 2 2 2 2 2 2 2 2 2 2 2 3 3 3 2 2 2 3 4 3 3 3 2 2 2 5 9 11 16 27 34 35 40 47 48 51 50 46 47 41 37 41 34 24 26 30 29 26 23 38 44 23 20 33 31 29 26 22 19 15 13 11 9 7 5 6 7
7 6 6 5 5 5 5 5 5 5 5 6 5 5 5 5 5 4 4 3 3 3 2 3 2 2 2 2 2 2 2 2 3 4 3 2 2 2 2 3 4 4 3 2 2 2 3 6 9 13 16 20 30 42 46 44 49 49 46 48 45 38 39 33 23 25 31 36 38 32 38 47 35 30 36 34 35 34 30 28 22 17 14 11 10 7 5 6
8 8 7 6 6 5 5 5 5 5 5 5 6 6 5 6 5 5 5 4 4 4 3 3 2 3 2 2 2 2 3 2 2 3 3 3 2 2 2 3 3 3 4 3 2 2 3 4 7 10 11 15 26 36 38 36 40 45 44 44 44 47 50 38 22 24 36 48 47 36 38 47 39 30 32 32 34 36 34 33 29 25 19 12 11 11 8 7
10 10 9 8 7 6 6 6 5 5 5 5 6 6 6 6 6 5 5 5 5 4 4 3 3 3 2 2 2 2 2 2 2 2 3 4 3 2 2 2 3 3 4 3 3 3 2 3 5 9 12 13 17 22 24 26 32 40 42 39 40 50 55 40 27 28 39 54 52 37 39 47 37 26 27 29 30 33 33 33 32 30 26 17 12 12 10 8
12 12 12 11 10 8 7 7 6 5 5 5 5 6 6 6 6 6 5 5 5 5 4 4 4 3 3 3 2 2 2 2 3 2 2 3 3 3 2 2 3 3 4 3 3 3 2 3 3 5 7 5 7 9 17 29 34 40 43 44 46 48 46 39 36 35 38 50 52 44 45 48 39 28 26 27 30 37 39 36 33 30 29 23 16 14 11 9
13 14 14 13 12 11 10 9 7 6 6 5 5 5 6 6 6 6 6 5 5 5 5 5 4 4 4 3 3 3 2 2 2 2 3 3 3 4 3 3 3 2 4 3 3 3 3 3 2 3 2 2 7 8 19 33 34 40 47 49 52 54 56 53 42 36 37 46 51 47 46 48 44 37 34 34 36 45 48 42 34 28 27 25 22 19 13 10
14 15 14 15 13 12 12 11 10 8 7 6 6 5 5 6 6 6 6 6 5 5 5 5 5 4 4 4 3 3 3 2 2 2 3 3 3 4 3 3 2 3 3 3 4 3 3 3 2 3 2 4 8 10 21 30 30 39 46 46 47 57 75 71 48 38 39 46 52 47 44 47 47 43 43 45 45 48 49 46 38 32 32 30 28 26 19 13
16 16 16 16 15 13 13 13 12 11 9 8 7 6 6 6 6 6 6 6 6 5 5 5 5 5 5 4 4 3 3 3 2 2 2 3 3 3 4 4 3 3 3 3 3 3 3 3 3 3 3 5 6 11 21 26 31 37 40 43 45 60 80 69 46 40 39 45 52 49 46 48 46 44 45 46 46 46 48 50 46 42 46 44 37 33 30 23
18 18 18 18 17 15 14 14 13 12 12 10 8 8 7 6 6 6 6 6 6 5 5 5 5 5 5 5 5 4 4 3 3 2 2 2 3 2 3 4 4 3 3 3 3 3 4 3 3 3 3 4 5 11 18 23 32 35 35 38 44 62 74 61 47 40 38 45 50 48 47 44 43 42 43 42 41 42 45 48 48 47 50 51 45 40 41 38
19 20 20 20 19 16 15 15 14 14 14 12 11 9 8 7 6 6 6 6 7 6 5 5 5 5 5 5 5 4 4 4 3 3 2 2 2 3 3 3 5 4 3 3 3 4 3 3 4 3 3 4 6 10 13 17 22 23 28 33 41 58 62 59 57 43 38 46 47 49 47 40 39 41 41 40 40 41 42 44 45 45 46 48 50 48 48 49
20 21 22 22 22 19 17 16 15 15 14 14 13 11 9 8 7 7 7 7 8 8 6 5 5 5 5 5 5 5 5 4 4 3 3 2 2 3 3 3 4 4 4 4 3 4 3 3 3 3 4 4 5 8 8 12 16 15 22 29 38 49 52 59 61 47 43 46 44 50 47 40 39 40 41 39 40 43 43 44 45 44 45 50 55 54 53 56
22 22 23 23 23 22 19 18 17 16 15 15 14 13 11 10 9 8 7 7 8 9 7 6 6 5 5 5 4 5 5 5 5 4 4 3 3 3 3 3 3 4 5 4 4 4 3 3 3 3 4 4 5 6 6 11 16 14 17 26 37 45 51 59 56 50 52 47 45 47 42 44 45 39 41 41 41 43 42 43 44 42 43 49 57 58 57 57
23 23 24 24 24 24 22 20 18 17 17 17 15 15 13 11 10 9 9 8 7 8 7 6 6 5 5 5 5 5 5 5 5 4 4 4 4 3 3 3 3 4 4 4 4 3 3 3 3 3 3 4 4 3 6 11 14 13 14 24 34 41 54 60 53 52 55 49 48 47 40 48 56 49 43 42 41 39 37 40 42 42 42 45 52 56 56 56
25 24 25 26 25 25 25 22 20 20 19 19 17 16 15 14 12 10 10 9 7 8 8 8 8 7 7 6 6 6 5 6 5 5 5 4 4 4 3 3 3 3 3 4 5 3 4 3 3 4 3 3 3 3 6 9 15 19 16 21 31 38 51 60 57 55 57 53 51 54 52 49 55 56 47 43 45 40 35 38 42 44 44 44 50 55 54 52
26 25 26 27 27 27 27 24 22 22 22 21 20 18 16 15 14 12 11 10 8 9 8 8 8 8 8 7 6 6 5 5 5 5 5 4 5 4 4 4 3 4 3 4 6 5 4 4 4 4 3 4 3 4 5 7 23 30 16 16 28 35 42 51 58 59 64 67 57 61 68 51 46 56 52 47 50 46 41 42 44 46 47 48 54 59 56 52
27 26 26 28 29 28 29 27 24 25 24 23 22 21 18 17 16 14 12 10 10 10 9 9 8 8 8 7 7 6 6 6 5 6 6 5 5 4 4 4 3 4 3 4 6 5 5 4 4 3 3 4 2 5 5 4 27 34 14 14 28 35 39 43 52 58 73 85 67 63 74 60 48 51 52 53 50 46 46 47 48 47 48 50 53 57 58 57
28 28 27 28 30 30 30 29 27 27 26 26 26 24 21 19 17 16 13 11 11 11 10 10 9 9 9 8 8 7 7 6 5 6 5 5 6 4 4 4 4 4 3 3 4 5 5 3 4 4 3 4 2 6 4 3 26 32 17 28 41 39 36 38 48 56 75 90 66 56 71 64 50 46 49 57 54 49 51 50 51 52 52 50 47 51 55 59
30 29 28 29 30 33 32 31 31 30 28 29 29 27 24 21 18 16 15 14 14 11 10 11 10 10 10 9 9 8 7 7 6 6 6 6 6 5 5 4 4 4 4 4 3 4 6 4 5 4 2 4 3 4 4 7 25 27 27 50 59 50 40 34 45 54 69 80 58 57 76 60 42 44 51 56 56 59 64 58 56 59 58 51 44 44 46 47
31 30 31 29 30 34 35 34 34 32 30 31 31 30 27 23 18 16 16 17 16 14 12 13 13 12 12 11 10 9 8 8 7 6 6 6 6 5 5 4 4 4 4 5 4 4 5 4 5 4 3 4 3 4 4 6 16 18 27 43 48 56 52 34 40 50 59 72 60 60 73 53 33 38 46 50 55 64 66 61 60 59 56 50 43 41 35 32
33 32 32 31 31 33 36 37 37 36 33 32 33 32 28 23 19 19 18 18 19 17 16 16 15 15 14 12 11 10 9 8 7 7 7 6 6 5 5 5 4 4 5 5 4 4 5 5 6 4 4 3 2 5 4 5 11 10 19 29 27 42 50 35 38 46 50 65 65 55 54 47 35 32 40 50 58 62 60 59 59 55 51 49 43 38 30 27
36 34 34 34 33 34 36 38 40 40 37 35 34 32 27 23 22 23 21 19 21 21 20 19 18 17 15 14 13 12 11 10 8 8 8 7 7 6 6 6 4 4 5 6 4 4 5 5 6 5 5 4 3 5 4 6 10 9 22 35 24 28 45 40 36 48 55 60 61 53 45 47 41 25 32 48 54 58 58 57 57 53 51 49 41 35 31 28
38 37 36 35 36 36 37 39 42 44 42 39 37 31 27 26 26 27 24 21 22 23 24 24 22 20 18 16 15 13 12 11 10 9 8 8 7 7 6 6 5 5 5 6 6 5 5 5 6 6 5 5 3 4 5 6 8 13 25 30 21 30 52 51 41 54 66 59 56 52 39 41 39 24 30 46 47 51 56 53 52 52 51 47 39 35 33 31
42 40 39 37 37 38 39 41 44 46 46 43 38 31 29 30 30 30 27 24 23 24 26 27 25 23 20 18 17 15 14 13 11 10 9 9 8 7 7 6 5 5 5 7 9 7 6 6 5 5 6 6 4 4 5 5 6 12 17 23 31 41 53 65 66 67 65 49 43 49 45 40 33 21 31 45 43 45 52 51 49 48 46 41 37 36 35 36
45 45 43 41 39 40 42 44 45 48 49 45 37 33 34 34 33 33 31 28 27 26 26 28 28 26 23 22 20 17 16 14 13 12 10 9 9 7 7 7 6 6 5 7 9 8 7 7 7 6 6 7 5 3 5 5 5 9 13 25 40 41 43 63 72 67 66 51 33 42 57 46 21 13 28 40 42 44 46 49 48 45 44 41 39 40 39 40
46 48 49 46 42 42 44 46 48 51 51 44 37 36 38 39 38 37 35 34 33 30 28 29 31 29 26 26 23 20 18 15 14 13 11 10 9 8 8 7 6 6 6 7 9 11 8 8 12 10 7 8 7 4 5 5 4 8 13 24 39 45 50 62 59 48 56 58 46 47 52 33 7 6 25 35 39 44 44 45 45 42 42 41 40 42 43 44
43 49 52 51 49 48 47 48 51 52 50 45 42 42 43 44 43 41 41 40 37 34 31 31 33 31 29 29 27 23 20 17 16 14 12 11 9 9 8 8 7 6 8 8 9 13 10 9 18 20 11 9 9 5 4 5 4 7 10 17 34 44 48 62 67 53 50 60 68 67 48 26 11 5 15 30 36 39 41 39 37 37 40 42 41 43 45 47
39 46 50 53 56 56 54 53 54 54 53 50 49 49 48 48 47 46 45 44 40 37 35 34 33 32 31 31 30 27 23 20 18 15 14 12 10 9 8 8 9 7 9 10 9 13 12 9 19 26 15 7 10 7 4 5 4 5 7 10 26 38 39 57 70 61 53 55 68 75 50 30 31 15 2 18 28 28 31 32 30 32 37 41 43 45 46 49
34 41 46 51 59 62 62 62 60 60 58 53 53 55 54 52 52 51 49 46 44 41 38 37 35 34 35 33 32 30 26 23 20 17 16 13 11 10 9 8 9 7 9 12 11 14 16 13 16 20 13 7 10 9 5 6 4 5 7 7 18 31 35 47 53 50 53 46 50 75 66 47 54 37 5 4 14 16 20 24 28 30 32 39 46 49 50 51
24 33 43 50 56 63 67 67 69 70 66 60 59 61 60 58 58 56 53 50 48 45 42 40 37 38 38 36 35 33 30 26 22 19 17 15 12 10 9 9 8 8 9 13 17 19 18 16 14 15 14 9 12 15 10 7 5 6 8 5 13 23 24 32 38 46 62 52 43 68 72 55 53 39 11 4 7 10 14 18 27 34 35 41 49 53 53 52
15 24 40 51 54 62 72 74 77 79 76 71 66 63 62 63 63 60 57 54 51 48 46 43 41 42 41 40 38 35 32 29 24 21 18 15 13 9 9 10 7 8 13 18 23 22 19 19 19 20 20 14 17 24 17 8 6 6 5 4 7 14 18 24 33 49 67 64 59 68 59 43 40 30 19 14 7 8 15 20 29 37 38 41 48 53 53 51
17 25 43 58 59 65 78 84 84 85 83 79 73 69 69 68 67 65 61 57 54 52 50 46 45 46 45 44 42 38 35 31 26 22 19 15 13 9 9 10 7 9 16 19 18 16 20 26 24 22 22 16 15 18 12 8 8 5 5 6 4 6 13 19 30 47 58 60 67 69 52 46 50 39 22 17 12 11 15 21 28 33 34 38 45 50 49 48
25 39 58 74 76 77 88 95 94 95 94 86 81 80 79 74 71 69 65 61 58 56 53 50 50 49 48 47 45 41 38 33 28 23 19 16 12 10 11 11 9 9 12 15 14 14 23 29 21 17 21 18 14 14 11 11 12 8 5 5 5 6 8 13 25 37 44 53 60 54 48 57 66 55 33 16 11 10 8 14 26 32 34 37 40 44 46 46
34 57 77 91 94 94 98 101 100 101 99 93 90 91 87 81 76 72 68 65 63 60 57 55 54 52 51 49 47 44 40 35 30 24 20 16 11 11 13 12 12 10 12 19 19 16 21 23 17 17 21 20 19 19 17 16 16 14 12 8 5 5 5 8 16 19 28 49 51 36 39 47 48 57 52 23 6 7 5 7 20 31 35 35 37 41 43 43
42 67 88 98 100 100 101 101 100 101 101 99 99 98 94 89 83 77 73 71 69 67 62 58 56 54 54 53 49 46 42 36 31 25 20 15 10 11 15 16 16 14 15 22 21 15 18 20 21 23 23 23 25 24 24 25 22 18 18 15 11 8 6 6 7 7 13 29 30 23 31 31 20 33 46 27 6 4 5 8 18 30 35 35 36 39 41 41
53 69 88 99 102 101 100 101 101 100 101 101 101 101 99 97 92 86 81 75 72 70 66 63 61 58 58 57 52 48 44 37 32 26 19 14 11 12 18 22 24 21 19 21 17 12 16 23 28 33 32 31 32 31 31 35 39 35 26 22 21 18 14 9 6 5 7 10 12 16 24 24 13 13 22 22 13 6 3 10 21 30 34 34 36 38 39 40
62 71 82 93 100 102 101 101 101 100 101 101 100 101 101 101 100 94 85 78 76 77 75 72 69 64 61 58 53 50 45 39 33 27 20 15 11 13 21 29 35 39 38 29 15 12 20 26 29 33 34 32 35 39 37 39 56 60 39 25 29 29 26 22 13 7 6 5 6 9 13 14 12 8 9 13 14 10 5 7 19 31 34 36 42 42 40 40
64 72 76 82 90 98 102 102 101 100 100 101 101 101 100 101 101 97 91 86 84 83 81 77 71 65 60 58 54 50 45 41 35 28 22 17 12 12 20 29 38 47 45 28 13 15 24 25 25 30 33 30 35 46 46 43 55 60 40 27 30 29 28 29 22 12 8 6 4 5 6 7 7 7 7 8 8 9 7 7 19 29 30 37 47 47 45 46
64 70 75 77 79 86 95 100 102 101 100 101 101 100 100 101 100 99 96 91 87 85 84 79 73 68 64 60 55 50 46 43 37 29 24 18 13 12 17 25 36 41 32 18 12 18 24 24 28 34 33 33 43 53 52 48 51 47 35 28 27 22 19 22 21 17 12 8 6 5 3 4 5 5 5 5 5 6 8 9 15 19 23 35 46 47 49 51
Wind_Speed
13 13 13 13 13 13 13 13 13 14 14 15 15 16 17 18 18 17 17 17 15 14 13 11 11 11 8 6 6 6 6 7 10 13 12 8 5 6 6 8 13 17 19 19 19 19 18 17 17 17 16 14 14 15 14 12 11 11 9 8 7 5 5 5 5 4 5 6 6 7 8 7 5 3 5 7 8 10 10 10 10 11 11 9 7 5 7 11
15 15 14 14 14 14 14 14 14 14 13 13 14 14 16 17 18 18 17 17 16 16 15 13 13 12 11 9 8 8 8 8 10 11 10 6 6 7 6 8 13 17 19 20 21 21 20 19 19 18 17 14 14 15 14 12 11 10 9 9 7 6 6 6 6 5 5 6 5 6 8 7 5 3 3 6 7 8 10 10 10 10 10 10 8 6 7 10
16 16 16 16 15 15 15 15 15 14 14 13 13 13 14 15 16 17 18 17 17 17 17 16 14 13 13 12 11 11 10 11 10 9 7 7 9 10 9 9 13 17 20 21 22 22 21 21 20 19 17 14 14 15 15 13 12 10 9 8 7 7 6 6 6 6 5 5 5 5 6 6 5 4 2 6 7 7 9 9 9 9 9 10 9 7 7 10
16 16 16 17 16 16 16 16 16 15 15 14 14 14 14 14 14 15 16 17 17 17 18 18 17 15 14 15 14 13 13 14 11 8 8 10 12 13 12 12 13 17 21 22 22 22 22 21 20 18 17 15 15 15 15 14 12 10 9 8 7 8 6 5 6 6 6 6 5 5 6 6 5 4 2 5 7 6 7 8 8 8 7 9 10 9 8 9
15 15 16 16 16 17 17 17 17 16 16 15 14 14 14 14 14 14 14 15 16 17 18 18 19 18 16 16 16 16 17 16 13 11 11 12 13 13 13 14 15 17 21 22 21 22 22 20 19 18 16 15 15 15 15 13 12 11 10 9 9 9 7 5 6 6 7 6 6 5 5 5 5 5 3 5 6 6 6 7 8 8 8 8 9 10 9 9
15 14 14 15 15 16 16 17 17 17 16 15 15 15 15 15 14 14 14 14 13 15 17 19 19 19 19 18 18 19 19 18 16 14 12 12 14 13 12 15 16 17 20 22 20 20 20 20 19 18 17 16 16 16 15 14 13 12 11 11 10 10 7 6 6 5 6 6 6 6 6 5 5 5 4 6 6 5 6 7 8 8 9 9 8 9 9 9
14 14 14 14 14 15 15 15 16 16 16 15 15 15 15 15 15 15 15 14 13 12 14 17 20 20 20 20 20 20 21 22 19 15 14 13 13 14 13 15 17 17 18 21 20 18 19 20 19 19 18 18 17 17 16 15 14 13 12 12 11 10 9 8 7 5 6 6 6 6 6 6 6 5 4 6 7 7 6 6 7 7 9 10 9 9 9 9
15 14 14 14 14 14 14 15 15 15 15 15 15 15 15 16 16 16 15 15 14 13 12 14 17 20 21 21 21 21 24 26 21 17 18 15 14 14 14 14 17 17 18 20 21 20 20 19 19 20 19 19 18 18 18 16 14 13 12 12 11 11 10 9 7 5 5 6 6 6 7 7 7 6 5 6 7 8 7 6 6 6 8 10 10 9 9 9
16 15 15 15 14 14 14 15 15 15 15 14 14 14 15 15 16 16 16 16 15 14 13 12 14 17 21 22 23 24 27 25 21 21 21 17 15 15 14 15 16 18 19 20 22 22 20 19 20 21 20 21 20 19 19 17 15 14 13 12 12 11 10 9 7 6 5 5 6 7 7 7 7 7 6 6 7 8 8 7 6 6 7 9 10 10 9 9
17 17 16 16 16 16 15 15 15 16 15 15 15 14 15 15 15 16 17 17 16 15 14 13 12 13 18 22 24 28 29 25 23 24 23 19 18 17 15 15 16 18 19 20 22 22 20 20 22 22 22 23 21 20 20 19 16 14 13 12 12 12 11 10 8 7 6 5 5 6 6 7 7 7 7 7 8 9 9 8 7 7 6 7 9 9 9 9
19 18 18 17 17 17 17 17 16 16 16 16 16 16 16 16 16 17 17 17 16 16 16 15 13 12 14 19 25 30 28 25 25 26 26 23 19 18 17 16 17 18 20 21 21 23 23 25 25 24 24 24 22 21 21 19 16 14 13 12 12 12 12 11 9 8 7 6 6 6 6 6 6 7 8 8 9 10 9 9 8 8 7 6 8 9 9 10
21 20 19 19 18 18 18 18 18 18 17 17 16 16 17 17 17 18 18 18 17 17 17 16 15 13 13 16 24 28 25 24 28 28 28 25 22 20 20 18 18 19 21 21 22 25 27 27 26 26 24 22 23 23 22 19 17 17 14 12 11 11 12 12 11 10 8 8 8 7 6 6 6 7 8 8 9 9 9 9 8 8 7 6 7 8 9 9
21 21 21 20 20 19 19 19 19 19 19 18 18 17 17 18 18 18 19 19 19 19 18 17 16 15 15 16 19 21 22 26 29 30 29 28 26 24 22 21 20 21 22 23 25 26 28 28 27 27 24 23 25 23 21 20 19 19 16 12 12 11 12 12 12 11 9 9 10 9 8 7 6 7 8 8 8 8 8 8 8 8 8 7 6 7 8 8
21 21 21 21 21 21 20 20 20 20 20 19 19 19 19 18 18 19 19 19 19 20 20 19 19 17 17 18 15 15 20 26 30 31 31 30 29 28 25 24 23 22 23 25 26 27 27 28 27 26 24 26 26 22 21 22 21 21 18 14 12 12 12 12 12 11 9 10 11 10 9 8 7 7 7 8 8 8 8 7 7 7 7 8 7 7 7 8
21 21 21 21 22 22 22 21 21 22 21 20 20 20 20 20 19 20 20 20 19 20 20 21 21 19 19 19 16 14 17 24 30 32 32 32 32 30 29 27 25 24 25 25 26 27 28 28 27 25 26 27 26 23 23 23 23 23 20 17 14 14 13 12 12 12 12 12 11 10 10 9 10 9 9 9 9 8 8 7 6 6 6 7 7 7 7 8
22 22 22 23 22 22 22 22 23 23 23 22 22 21 21 21 21 21 21 21 20 20 20 21 22 21 22 21 18 17 17 21 28 32 32 33 33 33 31 30 28 26 26 26 26 27 28 28 28 26 26 26 26 26 26 25 24 24 22 19 17 16 13 12 13 14 13 12 11 10 11 12 12 12 11 10 9 9 9 7 6 5 5 6 7 7 8 8
23 23 23 24 24 24 23 23 23 24 25 24 23 23 22 22 22 22 22 22 22 20 20 21 21 22 23 22 21 19 17 18 24 29 32 33 34 35 34 32 31 29 27 27 28 28 29 29 28 27 25 24 26 28 27 25 23 23 23 21 18 17 14 13 14 16 14 13 12 12 13 13 13 14 13 11 10 9 8 7 6 6 4 5 6 7 8 8
25 25 25 25 25 25 25 25 25 25 25 25 25 25 24 23 23 23 23 23 23 22 21 21 21 22 22 23 24 21 18 18 20 25 30 33 35 36 36 35 34 32 30 28 29 29 30 29 29 29 29 28 27 26 24 21 19 20 21 20 18 17 16 14 15 17 16 15 15 14 13 13 14 15 14 13 11 9 8 7 6 5 5 5 5 6 7 8
27 27 27 27 27 27 26 26 26 26 26 26 26 26 26 25 24 24 23 24 24 24 24 22 21 22 22 23 24 23 20 19 20 22 26 31 35 37 38 37 36 35 33 31 30 30 30 30 30 30 29 27 24 22 20 20 20 19 19 19 18 17 16 15 17 19 20 19 17 17 15 15 15 15 14 13 12 10 9 8 6 5 5 5 5 5 6 7
29 30 30 30 30 30 29 28 28 27 27 27 27 27 27 26 26 25 24 24 25 25 25 24 22 22 23 23 23 23 22 20 21 23 24 27 33 37 39 38 38 38 36 33 31 31 32 32 30 28 26 23 23 22 21 23 21 19 21 20 19 18 15 15 18 21 22 22 21 20 19 17 16 15 13 12 11 10 10 9 8 7 5 5 5 5 5 6
32 32 32 33 33 33 31 31 30 30 29 29 28 28 28 27 27 26 24 24 25 25 26 25 24 23 24 24 23 22 22 21 22 24 25 25 30 36 39 39 39 39 38 37 35 34 34 32 30 29 27 26 27 25 25 25 20 19 21 21 21 19 14 18 21 22 23 23 22 22 21 19 18 17 15 14 12 11 10 9 9 8 7 5 5 5 5 5
33 34 34 35 35 35 34 33 32 32 31 31 30 30 29 29 28 28 26 25 25 26 25 26 25 24 25 24 24 23 22 21 22 24 26 25 27 32 37 39 40 41 41 41 38 36 35 32 30 30 30 30 29 27 28 28 23 22 22 22 23 20 17 20 23 24 26 25 24 23 23 21 20 19 18 17 15 13 11 10 10 9 8 7 6 6 5 6
35 35 36 36 37 37 36 35 34 34 33 33 32 32 31 30 30 29 28 26 25 26 25 25 25 25 26 25 24 24 23 23 22 22 24 25 27 30 34 38 40 42 43 43 40 37 37 33 30 32 34 32 30 29 31 30 29 28 26 25 25 23 21 20 21 25 27 26 25 24 24 24 23 22 20 19 17 15 13 12 12 11 10 9 8 8 7 7
36 36 37 37 38 39 38 37 37 36 35 35 34 34 33 32 31 30 30 27 26 27 27 26 25 26 26 25 24 24 23 24 23 22 23 24 26 29 32 36 40 43 44 43 41 40 40 35 33 35 35 32 32 34 34 32 30 28 27 26 25 25 25 20 22 27 29 29 28 26 26 26 23 22 21 20 18 16 15 14 14 13 12 11 10 10 9 9
38 37 37 38 39 40 40 39 39 37 36 36 36 35 35 34 33 32 31 30 27 27 29 27 26 27 27 26 26 25 23 24 24 23 22 23 24 27 31 34 40 44 44 43 44 43 43 40 37 36 34 34 35 36 34 32 30 28 26 26 25 26 26 25 27 29 30 32 30 28 28 26 23 23 22 21 20 18 16 15 15 15 14 13 13 13 11 11
39 39 38 38 39 40 41 41 40 39 38 37 37 37 37 36 35 33 33 32 28 27 30 29 27 26 27 27 26 26 26 25 25 25 23 23 23 25 30 33 37 43 44 44 46 46 46 43 38 36 36 38 39 37 35 34 33 29 25 26 27 27 28 31 32 29 30 32 31 31 30 25 24 24 23 22 21 21 19 17 15 14 14 14 14 14 13 13
41 41 39 39 40 40 42 42 41 41 40 39 38 38 39 37 37 35 34 35 30 27 29 30 28 26 26 27 26 26 27 26 25 25 24 24 24 25 28 32 35 41 45 46 47 48 48 45 39 37 39 42 41 37 35 36 35 30 26 28 30 29 30 34 33 30 31 32 31 32 31 27 25 25 26 25 24 24 21 19 16 14 13 14 14 14 13 14
42 42 41 41 41 41 42 43 43 42 41 40 39 39 40 39 38 37 36 37 33 28 29 29 29 27 26 26 25 25 26 26 26 26 24 24 25 24 26 30 33 38 43 44 46 48 48 45 41 40 42 44 42 37 36 38 36 33 31 31 31 30 32 34 34 32 32 34 34 31 32 32 28 26 27 26 26 25 21 19 17 14 13 13 13 12 12 13
43 43 43 42 42 42 42 44 45 44 42 42 41 41 40 40 40 39 39 39 34 29 29 29 30 30 29 28 27 27 27 27 28 27 25 25 26 24 24 28 30 35 40 43 47 50 50 47 44 44 45 46 43 39 40 41 40 39 35 31 30 31 33 34 35 35 32 34 36 33 32 34 30 27 27 27 26 22 20 19 16 15 15 15 14 13 12 13
44 44 44 43 43 44 44 45 46 46 45 44 43 42 41 41 41 41 43 40 33 30 31 31 31 31 31 30 29 29 27 28 29 28 27 26 26 25 25 26 28 34 39 42 48 52 52 50 48 47 48 47 44 44 45 43 43 44 39 33 32 33 34 35 36 38 34 32 35 34 31 33 32 30 29 27 24 20 19 20 18 17 17 16 15 14 13 12
46 46 46 45 45 45 45 46 46 47 47 46 45 44 43 43 43 45 46 38 32 33 34 32 32 31 32 32 31 30 30 29 30 30 29 27 27 27 26 26 27 32 37 41 46 51 53 51 50 50 50 48 47 49 48 43 45 47 43 39 39 38 37 37 37 41 42 37 36 35 32 34 34 31 30 28 24 23 21 20 20 19 19 18 18 17 16 15
47 47 48 48 47 46 47 48 48 48 49 47 47 46 45 46 46 48 45 36 33 36 35 34 33 32 33 33 32 32 32 31 31 30 30 29 28 28 26 26 26 29 34 38 42 48 52 51 50 51 51 50 50 51 49 47 50 51 48 47 48 45 42 41 41 45 48 45 38 35 36 40 36 29 30 28 23 22 21 19 20 20 21 20 20 20 20 19
48 48 49 49 49 49 49 49 49 50 50 49 49 48 47 49 49 47 42 36 35 36 36 36 35 34 33 33 34 33 32 33 32 32 32 31 30 29 28 27 26 27 31 35 39 44 50 51 52 53 53 52 52 52 51 51 54 53 51 52 51 48 47 47 45 46 48 45 42 40 41 42 37 30 29 27 22 20 20 20 22 22 22 22 22 22 22 21
50 50 50 50 50 51 51 51 51 51 52 51 51 51 51 52 49 45 41 39 37 36 37 38 38 37 36 35 35 34 33 34 34 33 33 32 32 31 29 28 27 27 30 35 38 42 47 50 53 54 54 54 54 53 52 53 54 53 51 52 52 50 49 48 46 46 45 43 42 46 47 43 38 31 26 24 23 24 24 25 26 26 24 23 23 23 21 19
53 52 52 52 52 53 53 53 52 53 54 54 54 54 55 53 48 45 43 41 38 37 39 41 40 40 39 38 37 35 35 36 34 34 34 33 33 32 31 29 28 26 30 35 37 40 44 47 51 53 52 54 55 54 53 55 56 54 54 56 55 52 50 49 47 42 40 42 43 47 49 44 39 32 24 22 27 31 31 29 28 26 24 23 23 21 17 14
55 55 55 54 54 55 55 55 54 54 55 56 57 58 56 52 48 47 46 43 41 40 41 42 42 42 41 40 39 37 36 37 36 35 35 35 34 34 33 31 29 27 30 34 36 39 42 45 50 51 52 55 56 54 54 56 57 57 58 59 55 51 52 50 47 41 39 41 43 48 49 42 41 36 24 25 33 35 34 31 28 26 25 24 22 19 15 13
58 57 57 57 56 57 58 57 57 56 56 58 60 59 56 52 51 50 48 45 43 44 44 44 43 43 43 41 40 39 38 38 37 36 36 37 36 35 34 33 31 29 30 32 35 37 39 43 48 49 50 55 55 54 55 55 56 58 59 58 55 56 56 48 43 43 44 44 44 46 44 39 43 38 26 30 36 35 33 31 28 27 25 23 22 19 16 15
59 59 60 59 59 59 60 60 60 59 59 60 62 60 57 55 54 52 50 47 46 48 48 47 45 44 43 42 41 42 40 38 39 38 38 38 37 35 34 33 32 30 30 32 34 37 38 40 45 47 49 52 54 55 56 56 56 57 58 60 60 62 61 55 48 45 45 47 48 45 42 40 42 36 29 33 34 32 32 30 28 28 24 22 21 19 17 16
60 61 62 61 61 62 62 63 63 62 63 63 63 61 59 57 55 53 52 50 50 52 51 50 48 46 45 43 44 45 41 39 41 41 39 38 37 36 34 33 32 30 30 31 34 37 38 38 42 46 47 50 55 56 58 58 57 57 61 63 63 63 63 63 60 54 49 46 45 45 47 46 42 34 32 33 33 32 32 30 28 26 23 22 20 17 16 17
61 62 64 64 64 65 65 65 65 65 66 65 63 62 60 58 57 55 54 53 54 55 55 53 51 49 47 45 45 47 43 42 44 42 40 39 38 37 35 32 31 31 30 31 33 36 39 38 38 43 46 50 55 58 59 59 58 60 63 63 65 67 65 62 60 60 56 48 40 40 47 48 41 35 35 35 33 33 31 30 27 23 21 20 19 17 16 17
62 63 65 64 66 67 67 68 68 67 68 66 64 64 63 61 59 56 55 56 57 58 57 57 55 52 50 47 46 47 46 44 45 43 42 41 38 37 36 33 31 31 31 32 34 36 39 38 37 42 48 49 52 56 58 57 58 60 61 62 64 67 66 64 63 62 60 55 45 41 47 47 40 37 36 36 35 34 30 29 26 23 22 21 18 16 16 18
63 64 64 65 66 68 68 69 69 69 69 68 66 66 65 63 60 57 57 58 59 60 59 59 58 55 52 50 48 48 48 46 46 45 44 43 39 39 38 35 32 32 32 34 35 36 38 40 40 43 46 47 48 53 57 58 56 57 59 61 64 66 66 67 68 64 59 59 53 46 48 45 41 43 39 35 36 35 30 28 26 24 23 22 19 16 16 17
62 63 64 64 66 68 69 69 69 69 69 68 68 67 65 64 61 60 60 59 60 61 60 60 59 56 54 52 49 48 48 48 47 46 45 44 42 39 38 36 34 33 33 34 36 37 38 41 41 40 43 46 47 48 53 58 56 55 59 62 63 66 66 65 67 65 61 62 59 53 53 50 47 47 41 33 33 33 30 28 27 24 23 22 20 18 17 17
61 62 63 64 65 66 68 68 68 69 68 69 69 68 67 64 62 61 60 60 60 61 62 61 60 58 56 53 50 48 48 48 48 47 47 45 42 39 37 38 37 34 34 35 37 39 39 40 40 39 42 46 46 47 52 59 59 58 61 63 64 65 66 65 66 66 65 65 60 56 61 60 52 48 41 33 30 29 29 28 26 25 24 24 22 20 20 19
60 61 63 64 65 65 65 66 67 68 68 69 69 67 66 64 62 61 60 61 61 62 63 62 61 60 57 55 53 50 49 49 49 48 47 46 43 40 39 40 38 36 36 37 39 39 38 40 42 42 43 45 46 48 52 55 58 61 62 63 63 64 66 66 67 68 70 70 65 63 64 59 51 49 46 40 34 30 29 29 27 25 23 24 25 24 23 22
60 61 62 63 64 64 63 63 64 65 66 67 66 64 64 64 62 61 61 62 62 63 63 63 62 62 60 57 55 52 49 49 49 49 48 47 45 42 41 41 40 39 38 37 38 37 38 42 44 42 42 44 43 44 46 49 54 58 61 62 62 63 65 66 69 71 72 73 73 73 68 58 51 50 49 45 40 33 30 29 28 24 21 22 25 26 26 25
59 60 61 61 60 60 61 61 62 63 64 65 64 63 63 63 62 62 61 61 62 62 63 63 63 62 60 58 56 53 51 50 50 50 49 48 46 44 44 43 41 40 38 37 37 38 40 43 43 41 42 43 41 40 42 46 50 53 56 60 62 63 64 67 71 71 70 73 75 74 72 67 60 53 49 47 42 35 31 29 29 27 23 21 21 25 28 27
58 59 61 60 57 55 57 59 60 60 60 61 62 61 61 62 62 62 61 61 62 62 63 63 63 62 60 58 56 53 51 50 50 51 49 49 49 47 45 44 43 41 39 39 40 39 39 40 40 40 42 42 41 39 39 42 46 48 52 56 59 61 62 65 68 68 69 74 75 72 71 71 65 58 55 52 45 37 32 30 30 30 27 23 21 23 26 27
56 56 57 59 57 53 52 54 57 57 56 58 60 60 60 60 61 62 63 63 62 62 62 62 61 61 58 56 55 54 53 51 51 51 51 51 51 49 46 45 44 42 40 41 41 39 38 39 39 39 40 41 40 39 38 40 42 44 48 52 54 56 59 61 63 65 67 70 71 71 71 71 66 60 57 56 52 44 36 33 33 32 28 24 21 21 24 26
53 53 53 54 55 53 50 49 52 54 55 57 58 59 60 60 61 63 64 63 61 60 59 58 59 60 59 58 58 56 54 52 52 52 53 53 52 50 48 47 46 43 42 43 42 39 39 39 40 40 40 41 40 38 38 39 38 39 45 49 51 52 54 56 58 61 63 66 67 68 70 70 67 60 55 54 54 51 43 37 35 33 28 24 21 22 24 26
50 50 50 49 50 51 50 47 48 50 53 55 56 59 60 59 61 62 62 60 59 57 58 60 62 64 62 60 57 56 54 54 52 52 53 53 52 51 50 50 48 47 47 46 42 41 41 41 40 41 41 41 39 37 37 38 38 41 45 47 50 52 52 53 56 59 61 62 63 65 68 68 64 61 57 53 52 53 49 41 37 35 29 25 24 24 24 24
46 47 47 47 46 47 47 46 46 46 49 52 55 57 59 58 59 59 58 58 56 56 59 61 62 61 60 58 56 57 57 55 52 52 53 53 52 52 52 50 50 50 49 46 43 43 42 40 40 41 42 39 37 36 38 39 42 45 46 44 46 50 52 53 56 58 60 60 60 64 66 63 60 60 58 53 52 52 50 43 39 36 31 27 27 27 26 24
Wind_Direction
306 306 305 306 307 308 309 310 310 308 304 297 291 285 279 274 270 266 263 262 262 259 255 251 242 230 220 216 224 236 233 217 213 215 219 221 204 193 194 187 187 187 184 186 186 185 185 182 179 173 161 150 145 142 142 145 142 136 136 136 137 148 150 158 154 147 155 151 154 139 122 113 99 108 128 126 129 128 125 127 128 128 126 123 125 147 148 130
305 304 303 303 302 302 303 304 305 307 308 307 303 297 288 281 275 270 265 261 259 258 256 251 248 238 226 219 218 229 237 229 222 229 235 222 202 200 185 177 189 191 186 184 187 188 188 187 184 178 168 157 152 150 148 151 151 146 145 145 152 166 165 163 156 150 158 151 152 141 127 121 108 99 124 129 130 131 130 127 126 127 127 124 120 131 138 126
306 304 302 302 301 300 300 300 300 301 302 305 306 305 300 292 284 276 270 264 258 255 254 251 248 243 233 224 220 224 232 237 235 240 240 215 205 211 202 184 189 193 189 187 189 190 190 191 189 185 176 165 161 157 154 157 157 155 150 148 159 173 170 165 160 153 155 147 146 146 132 124 114 100 122 137 132 131 131 125 123 124 129 128 121 123 132 124
310 307 304 302 300 299 298 298 298 298 298 300 302 303 303 301 297 288 278 268 260 254 251 250 246 243 238 229 224 224 229 237 241 239 224 211 208 211 207 195 192 193 192 192 192 191 193 194 193 190 182 172 169 163 159 162 163 162 157 153 163 172 171 166 165 157 150 145 142 149 142 132 118 102 114 134 128 130 130 125 125 125 131 134 126 121 123 120
320 315 310 306 303 300 298 297 296 296 297 297 299 299 298 300 301 299 291 278 266 256 250 248 245 242 239 234 227 225 230 236 238 234 221 215 219 216 207 199 197 194 194 197 196 195 195 195 196 192 184 176 172 167 166 167 167 166 162 162 165 169 171 167 168 160 146 143 144 148 146 141 122 106 115 127 121 124 126 127 131 131 130 132 129 124 119 115
326 323 320 315 310 306 302 299 296 296 296 296 297 297 296 296 297 297 296 292 280 264 253 247 245 241 237 235 230 227 232 236 237 236 230 222 226 227 213 203 202 198 197 198 198 199 196 195 197 192 186 180 175 173 174 173 170 166 164 166 167 169 172 168 171 164 146 142 145 146 148 147 128 116 125 123 115 116 121 124 130 132 129 124 123 122 119 116
325 324 323 321 318 314 310 306 302 299 298 297 296 295 295 294 294 293 292 294 291 281 263 250 245 241 238 234 232 230 230 234 236 237 236 228 228 231 223 209 207 204 200 201 201 202 200 198 197 194 190 184 178 177 178 179 175 170 168 168 166 165 165 163 167 164 148 142 141 142 148 148 133 125 129 124 114 108 112 119 125 133 133 128 124 121 119 119
320 321 321 321 319 318 316 313 310 307 304 302 300 297 295 293 292 291 291 291 290 289 280 262 248 241 238 234 232 230 229 236 238 235 237 233 230 232 228 218 211 210 204 202 203 202 202 201 198 196 193 188 183 180 179 181 179 176 173 169 164 161 160 160 162 159 153 142 133 135 140 139 131 127 128 128 116 103 105 113 122 130 134 132 130 127 124 123
314 315 317 317 317 317 316 314 312 310 309 306 303 301 298 295 293 291 290 289 289 288 286 278 260 245 238 234 232 230 231 239 236 233 238 234 230 232 230 224 216 214 209 204 204 203 203 201 200 199 195 193 189 183 179 179 182 184 179 174 168 163 162 162 160 161 163 147 131 132 134 130 125 125 124 124 111 98 100 103 111 123 131 134 133 131 129 127
308 309 311 312 313 314 314 314 312 310 310 307 305 301 298 296 295 294 292 290 289 288 285 282 275 258 242 235 233 231 232 237 234 233 238 233 229 231 229 227 221 217 215 209 205 205 203 201 203 203 198 198 195 187 182 181 186 190 185 181 175 170 170 168 164 169 175 167 142 135 137 132 125 122 119 117 105 95 94 95 102 111 121 131 134 133 131 129
305 304 304 306 307 308 310 310 310 310 310 308 306 302 299 296 295 294 293 292 291 289 287 283 279 271 254 239 234 234 232 235 236 234 236 234 229 230 229 227 223 219 218 214 208 204 202 203 206 205 201 201 201 195 189 187 187 191 190 189 187 181 179 173 168 177 186 184 163 146 144 140 133 126 120 112 103 97 94 92 94 101 109 123 131 134 134 134
306 303 301 301 301 302 304 305 306 307 307 308 306 304 301 298 296 294 292 292 292 290 289 286 281 274 265 248 239 239 234 233 235 233 235 236 230 228 229 227 223 221 219 215 211 206 205 207 209 208 205 202 204 202 197 193 189 193 194 192 194 192 188 181 176 183 194 195 179 163 157 152 145 137 128 116 104 99 97 94 91 95 103 114 125 131 135 138
307 304 301 299 298 298 299 300 301 301 303 304 304 303 302 300 298 295 292 291 290 290 289 289 285 277 268 258 250 247 238 231 234 232 232 234 231 228 228 228 224 220 220 216 215 212 209 210 210 211 207 202 207 208 202 198 194 195 197 196 198 197 195 192 185 185 196 202 192 178 169 168 163 152 141 130 117 106 99 94 92 95 101 109 119 128 133 137
305 303 301 299 297 297 296 296 296 296 298 299 299 299 299 299 298 296 294 291 289 288 288 288 286 283 273 265 261 254 239 231 232 231 229 230 231 228 228 229 226 221 221 219 219 219 215 214 214 213 207 205 211 210 204 203 200 199 201 203 202 198 199 198 189 184 194 203 197 188 179 180 180 171 157 145 135 123 111 99 91 93 102 109 116 124 131 134
303 301 299 298 297 296 295 294 294 293 293 294 294 294 295 295 296 295 294 292 290 287 286 286 284 284 281 273 266 256 242 233 232 231 228 228 230 229 228 230 228 224 223 222 222 223 222 221 219 215 210 211 214 211 208 207 205 205 206 207 207 207 205 200 192 185 192 197 193 190 186 188 188 177 168 156 146 138 129 120 107 97 99 109 117 124 130 135
301 300 298 297 295 294 294 293 292 292 291 291 290 290 290 291 291 292 292 291 290 288 286 284 282 282 282 281 271 259 248 239 235 233 229 228 229 229 228 229 230 227 224 224 224 223 226 226 223 220 217 216 214 212 212 210 208 208 209 209 206 211 212 202 195 188 189 191 187 186 182 187 189 177 170 161 150 144 138 136 133 121 108 112 120 127 133 138
298 298 296 295 294 293 293 292 291 291 290 289 288 287 286 286 287 287 288 288 288 288 285 283 282 280 279 280 275 266 257 248 243 238 232 229 229 229 228 227 229 228 226 225 225 224 226 227 227 227 227 223 217 215 216 213 209 207 211 212 204 205 210 202 195 189 183 181 182 187 186 187 189 180 172 165 158 149 141 140 145 145 138 129 129 134 138 142
296 295 295 293 292 291 290 290 289 289 288 287 286 285 284 283 283 282 283 284 285 285 283 282 282 280 278 277 275 274 267 257 251 246 238 232 230 230 228 226 227 228 226 225 226 225 226 227 226 225 226 225 221 219 218 215 211 205 209 215 208 205 205 197 193 189 181 179 184 190 192 190 189 186 178 169 166 158 149 147 151 157 159 156 150 147 149 151
294 294 294 292 291 289 289 288 287 287 286 286 284 283 282 281 280 279 279 280 281 282 282 281 281 280 278 276 276 277 273 263 254 249 243 235 232 231 230 228 227 228 227 225 226 227 227 228 227 226 227 225 222 222 219 218 217 207 205 210 209 208 208 199 195 194 186 181 185 190 193 194 193 192 187 177 172 166 161 160 163 167 170 177 177 171 167 164
291 292 292 292 290 288 288 287 285 284 284 284 283 280 279 279 278 277 277 277 277 278 279 278 279 280 278 276 275 275 275 269 258 252 246 239 234 232 231 229 227 228 228 226 225 226 228 229 231 233 233 229 226 225 222 220 215 205 203 205 202 201 211 214 203 198 194 188 187 190 194 197 196 194 191 187 183 177 173 170 170 171 174 186 194 196 191 179
287 288 289 290 289 287 287 286 284 283 282 281 281 280 278 277 276 276 275 274 274 274 276 276 275 277 277 276 275 273 275 274 264 255 248 242 237 234 232 231 229 229 228 226 225 225 227 229 232 235 232 229 227 224 224 221 212 207 206 204 200 195 209 224 211 198 197 195 192 194 196 198 198 195 192 192 195 192 186 179 175 174 177 189 201 209 211 203
284 285 285 286 286 284 284 284 283 282 281 279 279 278 278 276 275 274 272 272 272 271 271 273 273 274 275 276 275 274 274 273 268 261 253 245 240 236 233 232 230 230 229 228 227 226 228 227 230 233 229 226 225 222 224 222 218 216 210 204 200 196 205 216 208 199 199 199 197 198 199 201 201 198 197 197 200 200 194 189 186 183 184 194 204 207 213 219
281 282 282 283 283 281 281 282 281 280 279 278 277 277 276 276 274 273 271 270 271 269 267 269 270 270 271 272 273 272 272 271 269 266 260 251 243 238 235 231 230 231 230 230 229 227 228 227 226 231 229 227 223 220 222 223 222 218 211 205 199 202 212 208 204 204 202 202 201 200 202 204 204 201 202 202 202 203 200 197 196 194 196 200 206 211 215 222
280 280 280 280 280 279 278 279 278 278 278 276 275 275 274 274 273 272 270 268 269 269 267 265 265 266 266 267 267 267 267 268 267 266 264 258 248 242 238 233 230 231 231 231 230 228 228 225 223 228 229 226 222 220 221 221 222 217 211 206 199 207 216 209 209 209 205 205 202 201 206 207 206 202 202 204 202 202 202 203 201 200 204 205 209 217 222 228
280 279 279 278 278 277 276 276 275 276 276 275 274 273 272 272 271 271 270 267 266 267 266 264 264 265 265 264 264 264 264 264 264 263 264 265 256 245 241 236 231 231 230 230 230 229 228 225 221 225 227 223 223 223 222 220 221 219 211 202 200 208 212 212 216 211 208 209 204 204 210 209 208 204 204 207 203 199 199 201 204 205 207 208 212 219 223 228
281 280 279 278 277 277 276 274 274 273 274 274 273 272 271 270 270 270 269 266 263 263 265 265 264 264 265 265 265 266 266 264 264 263 263 264 260 249 242 238 235 232 229 228 229 229 229 226 221 223 224 222 224 225 223 221 221 220 208 197 201 208 207 213 217 211 212 214 209 211 213 209 209 206 207 210 206 204 201 199 204 208 210 210 214 221 223 227
281 280 279 278 277 276 275 274 273 271 271 272 272 271 270 269 268 268 268 267 263 260 261 263 263 262 263 264 264 265 266 265 265 263 262 260 258 254 246 240 237 235 232 228 228 229 230 228 223 223 224 222 223 225 224 223 221 218 210 200 202 206 206 213 217 214 216 218 216 217 216 215 213 209 210 212 212 214 208 204 204 204 208 211 215 222 226 230
281 280 279 277 276 275 274 274 272 270 270 270 270 270 268 268 267 267 267 266 263 261 259 259 260 259 258 260 261 261 262 264 263 261 261 260 259 258 251 245 239 239 237 231 230 231 230 230 224 223 226 225 224 223 223 224 221 220 217 205 200 204 207 213 219 219 219 221 221 217 219 221 217 213 215 215 218 220 213 208 206 201 203 205 209 219 226 231
282 281 279 276 275 274 273 272 272 271 269 268 268 268 268 266 265 265 264 263 262 262 261 259 257 257 257 257 257 257 257 260 261 260 258 258 260 259 255 252 241 238 240 233 230 230 228 227 224 222 225 226 225 221 222 222 218 219 218 205 201 207 209 213 220 222 224 229 224 217 221 225 220 217 220 222 224 223 215 211 206 200 201 198 199 209 221 231
282 282 280 277 274 273 272 271 270 270 269 267 266 266 266 265 264 263 261 261 262 263 261 259 257 257 257 255 252 252 254 256 258 259 257 255 258 258 256 254 243 237 239 234 231 230 228 225 222 221 223 225 224 221 222 221 215 219 219 209 210 217 215 216 220 219 223 231 224 217 222 225 221 217 221 228 228 224 222 219 213 207 207 203 196 199 211 223
281 281 280 278 274 272 271 269 269 268 268 266 265 264 264 263 262 260 259 260 262 262 259 259 258 256 255 254 252 251 252 253 255 258 258 255 255 257 256 254 248 241 239 237 234 233 231 226 222 222 221 222 223 221 223 220 215 219 220 218 223 225 220 219 221 218 220 227 223 219 224 227 224 218 220 227 223 221 227 225 221 215 209 208 201 201 207 212
280 280 279 278 275 271 269 268 267 266 266 265 264 263 262 261 259 258 259 260 259 258 258 259 257 254 253 253 253 251 251 252 253 255 258 257 255 255 256 255 253 248 243 241 239 237 235 230 224 223 222 221 222 221 222 219 217 219 220 221 225 226 223 223 223 220 221 226 223 219 225 229 229 220 216 223 221 224 231 224 222 221 216 217 213 213 217 219
279 278 277 276 275 271 268 267 266 265 264 263 262 261 260 259 258 258 258 258 256 256 258 258 256 254 253 253 252 251 250 251 251 253 255 257 256 254 254 254 253 250 244 242 241 239 238 233 227 224 223 222 221 221 221 218 218 219 219 221 223 223 224 224 225 224 224 228 226 223 225 228 230 224 218 224 224 227 230 221 222 228 232 232 224 225 233 236
278 277 275 274 273 271 268 266 264 263 263 261 260 259 258 257 258 259 257 256 255 255 256 257 256 255 253 252 252 251 251 250 250 253 254 255 256 255 254 254 254 251 244 240 239 237 238 236 231 226 224 223 223 221 220 220 220 220 220 223 223 223 224 224 226 227 227 229 229 228 227 226 230 225 212 213 215 216 218 215 218 226 233 233 226 232 246 251
277 275 273 272 271 269 268 265 262 261 261 260 259 257 257 257 258 258 256 254 253 252 253 254 254 254 253 252 251 250 251 251 250 251 253 253 255 256 255 254 253 250 244 242 241 238 236 236 234 230 226 226 225 222 219 219 221 220 219 223 224 224 225 227 228 230 232 233 232 235 232 226 229 225 206 204 209 209 211 212 217 225 229 229 228 236 252 265
276 274 272 270 268 267 266 264 262 259 258 258 257 257 258 258 257 256 253 251 250 250 250 251 252 252 252 252 252 251 251 251 250 250 252 252 253 254 255 254 251 246 242 243 245 242 238 236 235 231 226 227 226 224 221 219 220 220 219 222 224 224 226 230 232 233 233 231 231 238 238 229 230 230 215 212 212 207 209 213 217 222 223 223 229 241 257 275
274 271 269 268 266 265 264 263 261 258 257 256 257 258 258 256 254 252 251 249 249 249 248 249 250 251 252 252 252 251 250 250 250 249 249 250 250 251 253 254 252 247 242 241 242 243 240 238 239 234 227 227 227 226 224 221 221 221 221 222 224 225 224 225 230 232 233 231 229 238 244 235 231 231 217 210 212 208 208 211 214 220 222 225 233 245 256 268
270 268 266 265 264 262 261 261 259 258 256 255 257 257 256 254 252 251 250 248 247 247 247 247 248 248 249 250 250 249 248 248 249 248 247 248 249 250 251 253 253 249 244 240 239 241 238 236 239 237 229 227 227 226 226 223 221 222 223 222 223 225 225 223 225 227 230 235 233 235 244 240 230 225 212 206 208 206 205 207 213 220 223 227 235 243 247 252
268 265 262 262 261 260 259 258 257 256 255 255 256 256 255 253 252 250 248 247 246 246 246 246 246 245 245 246 247 248 246 245 246 247 246 246 247 248 247 249 251 248 244 241 238 241 240 234 236 239 232 227 227 226 226 225 221 220 223 223 222 226 228 228 230 230 229 235 238 236 241 242 234 222 210 205 204 202 202 204 211 220 222 219 223 229 230 235
267 263 260 259 258 257 257 256 255 254 254 255 255 254 253 251 249 247 246 245 244 244 244 244 244 244 243 243 245 247 246 243 245 247 246 245 246 247 247 245 248 247 244 241 238 239 242 235 232 238 235 228 227 227 226 227 224 220 221 222 222 224 227 228 231 232 231 233 237 238 239 241 240 227 209 204 204 202 204 207 211 219 221 211 209 213 213 219
267 263 259 258 256 255 254 254 253 253 252 252 252 251 250 249 247 245 243 243 242 242 242 242 242 242 242 241 241 245 245 243 244 246 245 245 245 246 246 242 242 245 242 240 237 236 240 237 228 232 237 233 230 229 227 228 228 225 224 223 224 226 227 227 230 232 231 231 232 239 241 239 242 238 216 205 209 209 211 219 217 216 218 208 202 209 211 212
266 262 259 257 255 253 253 252 251 251 250 250 249 249 248 247 246 244 241 241 241 241 241 241 241 241 241 240 239 241 243 242 242 243 243 244 243 242 245 242 239 241 240 239 238 234 236 237 230 230 236 236 233 231 229 228 228 228 226 225 225 227 228 228 231 233 233 233 230 236 243 239 239 243 229 211 214 218 220 224 217 212 216 212 206 211 215 215
263 260 258 255 253 252 251 250 250 249 248 248 247 246 246 245 243 242 240 239 239 240 240 240 240 240 240 240 238 239 241 242 241 242 242 243 241 240 243 243 239 237 237 237 236 234 234 237 236 233 236 237 233 232 232 230 228 227 227 226 224 227 229 230 233 234 235 237 234 234 240 238 235 240 234 218 217 222 224 223 215 210 212 210 207 211 219 225
259 257 254 253 251 250 250 249 248 247 246 245 245 244 244 242 241 240 239 238 238 238 239 239 239 239 239 239 238 237 238 239 240 240 241 241 241 239 238 240 238 235 233 232 232 233 234 237 238 234 234 235 232 230 231 230 229 228 230 229 226 225 228 229 232 234 235 238 237 237 240 240 239 242 240 234 229 224 224 226 220 212 208 205 204 207 218 229
255 253 252 251 249 247 247 246 245 245 244 243 243 243 242 241 239 238 237 237 237 237 237 238 238 238 238 237 236 234 235 236 237 238 239 239 238 235 233 236 237 233 230 230 232 235 234 233 236 234 234 236 234 234 236 235 233 232 232 233 231 227 227 228 230 232 233 235 235 237 240 242 242 244 243 243 239 226 221 225 222 215 211 210 209 207 213 224
253 250 250 250 249 247 246 245 243 242 242 241 241 239 239 238 237 235 234 235 235 235 236 236 236 237 237 236 235 234 232 233 234 234 235 236 236 233 231 233 234 232 232 233 235 237 233 232 236 235 235 238 238 239 242 242 239 237 235 235 235 231 228 228 229 231 232 235 236 237 239 240 238 241 244 243 236 224 221 225 224 219 215 216 217 214 214 219
251 249 248 248 249 247 246 244 241 239 239 239 237 235 234 234 235 234 232 232 233 234 235 235 235 235 235 235 234 233 231 230 231 232 232 233 232 230 229 231 231 231 232 232 234 235 234 236 239 237 236 238 239 238 241 243 242 241 240 238 237 237 233 230 230 231 231 235 238 238 239 239 237 237 240 241 235 227 225 227 226 223 216 211 214 218 220 222
251 249 247 246 247 247 245 243 242 239 237 236 234 231 230 230 231 232 231 230 230 232 232 233 233 234 234 234 233 233 230 228 228 229 228 228 229 228 227 228 229 229 229 230 232 234 235 237 240 240 239 239 239 238 238 241 243 242 242 241 240 240 240 236 234 234 233 234 238 239 240 241 239 236 237 241 241 235 228 228 231 228 219 209 207 214 222 227
253 250 248 246 245 246 245 243 241 239 235 233 231 229 227 226 226 228 228 227 227 229 230 232 232 232 232 232 231 231 229 227 226 226 226 225 226 225 224 225 227 228 228 230 233 234 235 237 237 239 240 239 238 238 236 238 242 242 241 242 241 241 242 242 240 237 236 237 239 241 242 243 242 239 236 239 243 242 233 227 231 231 223 217 219 220 223 229
254 252 250 248 246 246 245 243 240 238 235 232 229 226 225 224 224 224 225 225 225 226 227 228 229 230 229 229 229 228 228 226 224 223 223 223 223 221 220 222 223 224 226 229 231 233 235 235 235 237 238 238 236 236 235 235 237 240 240 240 240 240 241 242 242 240 239 239 240 242 243 245 245 244 239 237 241 244 239 231 231 230 222 218 224 226 226 229
255 253 251 249 247 246 246 245 241 238 236 233 229 226 225 224 223 222 222 223 223 223 223 224 226 227 227 227 228 227 226 225 223 223 223 223 222 220 218 219 219 219 222 226 228 231 233 234 235 237 239 239 238 237 239 239 239 241 241 239 238 239 239 240 242 242 241 240 240 241 242 243 245 246 244 240 240 243 242 237 232 230 223 216 218 223 226 228
255 253 251 249 246 245 246 246 244 240 238 236 232 227 225 225 224 222 221 221 220 220 221 222 224 226 226 226 225 225 226 224 222 222 222 221 221 220 218 218 219 219 222 225 227 230 233 233 234 236 237 239 239 238 238 239 240 241 240 238 239 242 242 242 242 244 244 242 240 241 242 243 244 245 245 243 241 241 242 239 233 230 227 221 217 220 223 223